DateTimeUTC,F1_A11,F1_S11,BsB_S11,BsG_S11,BsR_S11,BbsB_S11,BbsG_S11,BbsR_S11,BaB_A11,BaG_A11,BaR_A11,Tu_S11,T_S11,Uu_S11,U_S11,P_S11,T1_A11
2021-10-13T00:00:00Z,00000200,21000000,,,,,,,0000.55,0000.14,-000.00,16.8,24.2,,00.0,0669.8,30.9
2021-10-13T00:01:00Z,00000200,21000000,,,,,,,-000.01,-000.50,0000.20,16.8,24.2,,00.0,0669.8,31.0
2021-10-13T00:02:00Z,00000200,21000000,,,,,,,-000.56,0000.48,-000.14,16.8,24.2,,00.0,0669.8,31.0
2021-10-13T00:03:00Z,00000200,61000000,,,,,,,0000.62,-000.03,0000.05,16.8,24.2,,00.0,0669.8,31.0
2021-10-13T00:04:00Z,00000200,41000000,0003.44,0002.01,0001.12,0000.27,0000.71,0000.51,0000.29,0000.25,0000.19,17.2,24.1,,00.0,0670.8,31.0
2021-10-13T00:05:00Z,00000200,01000000,0003.82,0002.12,0001.04,0000.12,0000.30,0000.30,0000.42,0000.29,0000.16,17.3,24.1,,00.0,0670.8,31.0
2021-10-13T00:06:00Z,00000200,01000000,0003.49,0002.05,0001.09,0000.27,0000.15,0000.38,0000.26,0000.18,-000.03,17.3,24.0,,00.0,0670.8,31.0
2021-10-13T00:07:00Z,00000200,01000000,0002.23,0002.19,0001.15,0000.28,0000.54,0000.30,-000.07,0000.30,0000.08,17.2,24.0,,00.0,0670.8,30.9
2021-10-13T00:08:00Z,00000200,01000000,0003.57,0002.02,0001.29,0000.44,0000.66,0000.37,0000.77,0000.33,0000.32,17.1,23.9,,00.0,0670.8,30.9
2021-10-13T00:09:00Z,00000200,01000000,0004.18,0001.94,0001.14,0000.54,0000.53,0000.12,0000.53,0000.46,0000.07,17.0,23.9,,00.0,0670.8,30.9
2021-10-13T00:10:00Z,00000200,01000000,0003.13,0001.83,0000.80,0000.86,0000.29,0000.39,0000.26,0000.14,0000.35,17.0,23.9,,00.0,0670.8,30.9
2021-10-13T00:11:00Z,00000200,01000000,0003.10,0001.93,0000.79,0000.27,0000.64,0000.58,0000.71,0000.43,0000.54,16.9,23.8,,00.0,0670.7,30.9
2021-10-13T00:12:00Z,00000200,01000000,0004.05,0001.74,0000.97,-000.05,0000.70,0000.20,0000.57,0000.80,0000.22,16.9,23.8,,00.0,0670.7,30.9
2021-10-13T00:13:00Z,00000200,01000000,0003.24,0002.17,0000.97,0000.23,0000.62,0000.28,0000.53,0000.31,0000.17,16.9,23.8,,00.0,0670.8,30.9
2021-10-13T00:14:00Z,00000200,01000000,0003.36,0001.80,0000.80,-000.04,-000.01,0000.27,0000.64,0000.33,0000.62,16.9,23.8,,00.0,0670.8,30.9
2021-10-13T00:15:00Z,00000200,01000000,0003.21,0001.75,0000.88,-000.27,0000.60,0000.08,0000.26,0000.55,0000.55,17.0,23.8,,00.0,0670.8,30.9
2021-10-13T00:16:00Z,00000200,01000000,0002.51,0001.59,0000.77,0000.74,0000.40,0000.25,0000.48,0000.39,-000.03,17.0,23.8,,00.0,0670.8,30.9
2021-10-13T00:17:00Z,00000200,01000000,0003.38,0001.78,0001.08,0000.25,0000.36,0000.65,0000.50,0000.66,0000.34,17.1,23.8,,00.0,0670.8,31.0
2021-10-13T00:18:00Z,00000200,01000000,0003.91,0002.17,0001.12,0000.18,0000.59,0000.31,0000.43,0000.16,-000.15,17.1,23.9,,00.0,0670.8,30.9
2021-10-13T00:19:00Z,00000200,01000000,0003.16,0001.93,0001.09,0000.34,0000.44,0000.54,0000.48,0000.17,0000.57,17.2,23.9,,00.0,0670.8,30.9
2021-10-13T00:20:00Z,00000200,01000000,0003.51,0001.68,0000.95,0000.37,0000.21,0000.60,0000.09,0000.33,-000.04,17.2,23.9,,00.0,0670.8,30.9
2021-10-13T00:21:00Z,00000200,01000000,0003.94,0001.97,0000.73,0000.40,0000.31,0000.33,0000.27,0000.05,0000.24,17.1,23.9,,00.0,0670.8,30.9
2021-10-13T00:22:00Z,00000200,01000000,0003.73,0001.87,0000.76,0000.06,0000.22,0000.43,0000.68,0000.53,0000.18,17.0,23.8,,00.0,0670.8,30.9
2021-10-13T00:23:00Z,00000200,01000000,0003.62,0001.92,0001.02,0000.62,0000.61,0000.36,0000.27,0000.15,0000.15,16.9,23.8,,00.0,0670.8,30.9
2021-10-13T00:24:00Z,00000200,01000000,0004.51,0002.06,0000.94,0000.39,0000.85,0000.21,0000.27,0000.07,-000.05,16.9,23.8,,00.0,0670.7,30.9
2021-10-13T00:25:00Z,00000200,01000000,0004.02,0002.15,0001.31,0000.73,0000.51,0000.55,0000.47,0000.81,0000.39,16.8,23.7,,00.0,0670.7,30.9
2021-10-13T00:26:00Z,00000200,01000000,0003.06,0001.87,0001.01,0000.44,0000.19,0000.19,0000.48,0000.12,0000.48,16.7,23.7,,00.0,0670.7,30.9
2021-10-13T00:27:00Z,00000200,01000000,0003.10,0002.19,0001.18,0000.68,0000.44,0000.09,0000.59,0000.49,0000.15,16.7,23.6,,00.0,0670.7,30.9
2021-10-13T00:28:00Z,00000200,01000000,0003.41,0001.56,0000.90,0000.72,0000.26,0000.39,0000.60,0000.82,0000.47,16.7,23.6,,00.0,0670.7,30.9
2021-10-13T00:29:00Z,00000200,01000000,0002.32,0000.68,0000.39,-000.13,0000.56,0000.15,0000.49,0000.22,0000.69,16.7,23.6,,00.0,0670.7,30.9
2021-10-13T00:30:00Z,00000200,01000000,0001.01,0000.46,0000.54,0000.18,0000.00,0000.22,0000.09,0000.31,-000.31,16.8,23.6,,00.0,0670.7,30.9
2021-10-13T00:31:00Z,00000200,01000000,0001.07,0000.55,0000.39,0000.51,0000.37,0000.24,0000.08,0000.19,0000.32,16.9,23.7,,00.0,0670.7,30.9
2021-10-13T00:32:00Z,00000200,01000000,0000.82,0000.16,0000.04,-000.24,0000.39,0000.25,-000.02,0000.01,-000.21,17.0,23.7,,00.0,0670.7,31.0
2021-10-13T00:33:00Z,00000200,01000000,0000.97,0000.39,0000.28,0000.03,0000.24,-000.29,0000.02,-000.03,0000.11,17.0,23.7,,00.0,0670.7,30.9
2021-10-13T00:34:00Z,00000200,01000000,0000.94,0000.34,0000.10,0000.43,0000.16,0000.23,0000.14,-000.08,-000.03,17.1,23.7,,00.0,0670.7,30.9
2021-10-13T00:35:00Z,00000200,01000000,0001.71,0000.55,0000.72,0000.03,0000.02,0000.45,-000.14,-000.14,-000.03,17.1,23.8,,00.0,0670.7,30.9
2021-10-13T00:36:00Z,00000200,01000000,0000.67,0000.19,0000.42,0000.14,0000.25,0000.10,0000.03,-000.16,-000.21,17.1,23.8,,00.0,0670.7,30.9
2021-10-13T00:37:00Z,00000200,01000000,0001.17,0000.48,0000.35,0000.57,0000.39,0000.11,-000.37,-000.16,-000.12,17.0,23.7,,00.0,0670.7,30.9
2021-10-13T00:38:00Z,00000200,01000000,0000.23,0000.37,0000.50,0000.14,0000.28,0000.55,-000.08,-000.16,-000.37,16.9,23.7,,00.0,0670.7,30.9
2021-10-13T00:39:00Z,00000200,01000000,0000.07,0000.17,-000.07,-000.36,0000.03,0000.00,-000.06,-000.06,0000.10,16.9,23.7,,00.0,0670.7,30.9
2021-10-13T00:40:00Z,00000200,01000000,0001.91,0000.54,0000.26,0000.79,0000.19,0000.28,0000.13,-000.16,-000.01,16.8,23.6,,00.0,0670.7,30.9
2021-10-13T00:41:00Z,00000200,01000000,0001.77,0000.30,0000.34,0000.51,0000.48,-000.00,-000.03,0000.12,0000.07,16.7,23.6,,00.0,0670.6,30.9
2021-10-13T00:42:00Z,00000200,01000000,0001.07,0000.60,0000.07,0000.34,0000.15,0000.35,0000.30,0000.38,0000.31,16.7,23.6,,00.0,0670.7,30.9
2021-10-13T00:43:00Z,00000200,01000000,0000.26,0000.33,0000.08,-000.38,0000.23,0000.24,-000.25,0000.00,0000.03,16.7,23.5,,00.0,0670.6,30.9
2021-10-13T00:44:00Z,00000200,01000000,0000.74,0000.62,0000.32,-000.17,-000.13,0000.10,0000.46,0000.35,0000.11,16.7,23.5,,00.0,0670.7,30.9
2021-10-13T00:45:00Z,00000200,01000000,0001.08,0000.85,0000.46,0000.09,0000.31,0000.53,0000.24,0000.22,0000.30,16.8,23.6,,00.0,0670.7,30.9
2021-10-13T00:46:00Z,00000200,01000000,0001.38,0000.82,0000.29,0000.11,-000.16,0000.29,-000.03,0000.35,-000.06,16.8,23.6,,00.0,0670.7,30.9
2021-10-13T00:47:00Z,00000200,01000000,0001.82,0000.60,0000.42,0000.23,0000.50,0000.06,0000.34,0000.06,0000.31,16.9,23.6,,00.0,0670.7,30.9
2021-10-13T00:48:00Z,00000200,01000000,0001.73,0001.04,0000.55,0000.30,0000.19,0000.03,0000.25,0000.42,0000.27,17.0,23.6,,00.0,0670.8,30.9
2021-10-13T00:49:00Z,00000200,01000000,0002.06,0001.04,0000.64,0000.41,0000.56,0000.57,0000.22,0000.14,0000.32,17.0,23.7,,00.0,0670.8,30.9
2021-10-13T00:50:00Z,00000200,01000000,0002.80,0001.70,0000.95,0000.39,0000.49,0000.41,0000.34,0000.12,-000.13,17.1,23.7,,00.0,0670.8,30.9
2021-10-13T00:51:00Z,00000200,01000000,0003.35,0001.54,0000.92,0000.06,0000.20,0000.29,0000.80,0000.65,0000.44,17.2,23.7,,00.0,0670.8,31.0
2021-10-13T00:52:00Z,00000200,01000000,0003.82,0002.04,0001.16,0000.23,0000.48,0000.53,-000.09,-000.22,-000.33,17.2,23.7,,00.0,0670.8,31.0
2021-10-13T00:53:00Z,00000200,01000000,0003.57,0001.68,0001.08,0000.68,0000.43,0000.59,0000.43,0000.24,0000.23,17.2,23.8,,00.0,0670.8,31.0
2021-10-13T00:54:00Z,00000200,01000000,0002.77,0001.89,0001.04,0000.56,0000.67,0000.46,0000.01,0000.06,-000.05,17.1,23.7,,00.0,0670.7,31.0
2021-10-13T00:55:00Z,00000200,01000000,0003.17,0001.77,0000.77,-000.11,0000.41,0000.37,0000.36,-000.06,0000.13,17.0,23.7,,00.0,0670.7,30.9
2021-10-13T00:56:00Z,00000200,01000000,0003.84,0001.52,0000.98,-000.15,0000.47,0000.39,0000.46,0000.79,0000.47,16.9,23.7,,00.0,0670.7,30.9
2021-10-13T00:57:00Z,00000200,41000000,,,,,,,0000.53,0000.39,0000.07,17.0,23.7,,00.0,0670.7,30.9
2021-10-13T00:58:00Z,00000200,61000000,,,,,,,-000.09,-000.18,-000.17,16.5,23.8,,00.0,0669.8,30.9
2021-10-13T00:59:00Z,00000200,21000000,,,,,,,0000.13,-000.01,0000.57,16.5,23.9,,00.0,0669.7,30.9
